Location: Canyon City
(32.5951°N, 116.5278°W)
Time: 02:21:24
(UTC+00:00)

CENTAUR R/B - Pass Details

Date: 08 September 2024
Orbit: 661 x 1523 km, 63.4° (Epoch: 10 October)

Event Time Altitude Azimuth Distance (km) Brightness Sun altitude
Exits shadow 12:51:44 - 261° (W) 2,424 3.9 -7.9°
Reaches altitude 10° 12:51:53 10° 262° (W) 2,387 3.9 -7.9°
Maximum altitude 12:56:15 24° 315° (NW) 1,796 3.6 -7.0°
Drops below altitude 10° 13:01:22 10° 7° (N) 2,828 5.2 -5.9°
Sets 13:04:54 0° 21° (NNE) 3,954 6.1 -5.2°
